Year,Month,Day,Hour,Minute,Value (Times are PST for temperature in C)
2006,08,20,00,00,15.80
2006,08,20,00,01,15.70
2006,08,20,00,02,15.70
2006,08,20,00,03,15.70
2006,08,20,00,04,15.70
2006,08,20,00,05,15.70
2006,08,20,00,06,15.70
2006,08,20,00,07,15.80
2006,08,20,00,08,15.80
2006,08,20,00,09,15.80
2006,08,20,00,10,15.80
2006,08,20,00,11,15.80
2006,08,20,00,12,15.80
2006,08,20,00,13,15.80
2006,08,20,00,14,15.80
2006,08,20,00,15,15.80
2006,08,20,00,16,15.80
2006,08,20,00,17,15.80
2006,08,20,00,18,15.80
2006,08,20,00,19,15.80
2006,08,20,00,20,15.80
2006,08,20,00,21,15.80
2006,08,20,00,22,15.80
2006,08,20,00,23,15.80
2006,08,20,00,24,15.80
2006,08,20,00,25,15.80
2006,08,20,00,26,15.80
2006,08,20,00,27,15.80
2006,08,20,00,28,15.80
2006,08,20,00,29,15.80
2006,08,20,00,30,15.80
2006,08,20,00,31,15.80
2006,08,20,00,32,15.80
2006,08,20,00,33,15.80
2006,08,20,00,34,15.80
2006,08,20,00,35,15.80
2006,08,20,00,36,15.80
2006,08,20,00,37,15.80
2006,08,20,00,38,15.80
2006,08,20,00,39,15.80
2006,08,20,00,40,15.80
2006,08,20,00,41,15.80
2006,08,20,00,42,15.80
2006,08,20,00,43,15.80
2006,08,20,00,44,15.80
2006,08,20,00,45,15.80
2006,08,20,00,46,15.80
2006,08,20,00,47,15.80
2006,08,20,00,48,15.80
2006,08,20,00,49,15.80
2006,08,20,00,50,15.80
2006,08,20,00,51,15.80
2006,08,20,00,52,15.80
2006,08,20,00,53,15.80
2006,08,20,00,54,15.80
2006,08,20,00,55,15.80
2006,08,20,00,56,15.80
2006,08,20,00,57,15.80
2006,08,20,00,58,15.80
2006,08,20,00,59,15.80
2006,08,20,01,00,15.80
2006,08,20,01,01,15.80
2006,08,20,01,02,15.80
2006,08,20,01,03,15.70
2006,08,20,01,04,15.70
2006,08,20,01,05,15.70
2006,08,20,01,06,15.70
2006,08,20,01,07,15.70
2006,08,20,01,08,15.70
2006,08,20,01,09,15.70
2006,08,20,01,10,15.70
2006,08,20,01,11,15.60
2006,08,20,01,12,15.60
2006,08,20,01,13,15.60
2006,08,20,01,14,15.60
2006,08,20,01,15,15.60
2006,08,20,01,16,15.60
2006,08,20,01,17,15.60
2006,08,20,01,18,15.50
2006,08,20,01,19,15.50
2006,08,20,01,20,15.50
2006,08,20,01,21,15.50
2006,08,20,01,22,15.50
2006,08,20,01,23,15.50
2006,08,20,01,24,15.50
2006,08,20,01,25,15.40
2006,08,20,01,26,15.40
2006,08,20,01,27,15.40
2006,08,20,01,28,15.40
2006,08,20,01,29,15.40
2006,08,20,01,30,15.40
2006,08,20,01,31,15.40
2006,08,20,01,32,15.30
2006,08,20,01,33,15.30
2006,08,20,01,34,15.30
2006,08,20,01,35,15.30
2006,08,20,01,36,15.30
2006,08,20,01,37,15.30
2006,08,20,01,38,15.30
2006,08,20,01,39,15.30
2006,08,20,01,40,15.30
2006,08,20,01,41,15.30
2006,08,20,01,42,15.20
2006,08,20,01,43,15.20
2006,08,20,01,44,15.20
2006,08,20,01,45,15.20
2006,08,20,01,46,15.20
2006,08,20,01,47,15.20
2006,08,20,01,48,15.20
2006,08,20,01,49,15.10
2006,08,20,01,50,15.10
2006,08,20,01,51,15.10
2006,08,20,01,52,15.10
2006,08,20,01,53,15.10
2006,08,20,01,54,15.10
2006,08,20,01,55,15.10
2006,08,20,01,56,15.00
2006,08,20,01,57,15.00
2006,08,20,01,58,14.90
2006,08,20,01,59,14.90
2006,08,20,02,00,14.90
2006,08,20,02,01,14.80
2006,08,20,02,02,14.80
2006,08,20,02,03,14.80
2006,08,20,02,04,14.80
2006,08,20,02,05,14.70
2006,08,20,02,06,14.70
2006,08,20,02,07,14.60
2006,08,20,02,08,14.60
2006,08,20,02,09,14.50
2006,08,20,02,10,14.50
2006,08,20,02,11,14.40
2006,08,20,02,12,14.30
2006,08,20,02,13,14.30
2006,08,20,02,14,14.30
2006,08,20,02,15,14.20
2006,08,20,02,16,14.20
2006,08,20,02,17,14.10
2006,08,20,02,18,14.10
2006,08,20,02,19,14.10
2006,08,20,02,20,14.00
2006,08,20,02,21,14.00
2006,08,20,02,22,14.00
2006,08,20,02,23,13.90
2006,08,20,02,24,13.90
2006,08,20,02,25,13.90
2006,08,20,02,26,13.80
2006,08,20,02,27,13.80
2006,08,20,02,28,13.80
2006,08,20,02,29,13.70
2006,08,20,02,30,13.70
2006,08,20,02,31,13.70
2006,08,20,02,32,13.70
2006,08,20,02,33,13.70
2006,08,20,02,34,13.70
2006,08,20,02,35,13.60
2006,08,20,02,36,13.60
2006,08,20,02,37,13.60
2006,08,20,02,38,13.60
2006,08,20,02,39,13.50
2006,08,20,02,40,13.50
2006,08,20,02,41,13.50
2006,08,20,02,42,13.50
2006,08,20,02,43,13.50
2006,08,20,02,44,13.50
2006,08,20,02,45,13.50
2006,08,20,02,46,13.50
2006,08,20,02,47,13.50
2006,08,20,02,48,13.40
2006,08,20,02,49,13.40
2006,08,20,02,50,13.40
2006,08,20,02,51,13.40
2006,08,20,02,52,13.40
2006,08,20,02,53,13.40
2006,08,20,02,54,13.40
2006,08,20,02,55,13.40
2006,08,20,02,56,13.30
2006,08,20,02,57,13.30
2006,08,20,02,58,13.30
2006,08,20,02,59,13.30
2006,08,20,03,00,13.30
2006,08,20,03,01,13.30
2006,08,20,03,02,13.30
2006,08,20,03,03,13.30
2006,08,20,03,04,13.30
2006,08,20,03,05,13.30
2006,08,20,03,06,13.30
2006,08,20,03,07,13.30
2006,08,20,03,08,13.30
2006,08,20,03,09,13.30
2006,08,20,03,10,13.30
2006,08,20,03,11,13.30
2006,08,20,03,12,13.30
2006,08,20,03,13,13.20
2006,08,20,03,14,13.20
2006,08,20,03,15,13.20
2006,08,20,03,16,13.20
2006,08,20,03,17,13.10
2006,08,20,03,18,13.10
2006,08,20,03,19,13.10
2006,08,20,03,20,13.10
2006,08,20,03,21,13.00
2006,08,20,03,22,13.00
2006,08,20,03,23,13.00
2006,08,20,03,24,13.00
2006,08,20,03,25,13.00
2006,08,20,03,26,13.00
2006,08,20,03,27,13.00
2006,08,20,03,28,13.00
2006,08,20,03,29,13.00
2006,08,20,03,30,12.90
2006,08,20,03,31,12.90
2006,08,20,03,32,12.90
2006,08,20,03,33,12.90
2006,08,20,03,34,12.90
2006,08,20,03,35,12.90
2006,08,20,03,36,12.90
2006,08,20,03,37,12.90
2006,08,20,03,38,12.90
2006,08,20,03,39,12.90
2006,08,20,03,40,12.90
2006,08,20,03,41,12.90
2006,08,20,03,42,12.90
2006,08,20,03,43,12.90
2006,08,20,03,44,12.80
2006,08,20,03,45,12.80
2006,08,20,03,46,12.80
2006,08,20,03,47,12.80
2006,08,20,03,48,12.80
2006,08,20,03,49,12.80
2006,08,20,03,50,12.80
2006,08,20,03,51,12.80
2006,08,20,03,52,12.80
2006,08,20,03,53,12.80
2006,08,20,03,54,12.80
2006,08,20,03,55,12.80
2006,08,20,03,56,12.80
2006,08,20,03,57,12.80
2006,08,20,03,58,12.80
2006,08,20,03,59,12.80
2006,08,20,04,00,12.80
2006,08,20,04,01,12.80
2006,08,20,04,02,12.80
2006,08,20,04,03,12.80
2006,08,20,04,04,12.80
2006,08,20,04,05,12.80
2006,08,20,04,06,12.80
2006,08,20,04,07,12.80
2006,08,20,04,08,12.80
2006,08,20,04,09,12.80
2006,08,20,04,10,12.80
2006,08,20,04,11,12.80
2006,08,20,04,12,12.80
2006,08,20,04,13,12.80
2006,08,20,04,14,12.70
2006,08,20,04,15,12.70
2006,08,20,04,16,12.70
2006,08,20,04,17,12.80
2006,08,20,04,18,12.80
2006,08,20,04,19,12.80
2006,08,20,04,20,12.80
2006,08,20,04,21,12.80
2006,08,20,04,22,12.80
2006,08,20,04,23,12.80
2006,08,20,04,24,12.80
2006,08,20,04,25,12.80
2006,08,20,04,26,12.80
2006,08,20,04,27,12.80
2006,08,20,04,28,12.80
2006,08,20,04,29,12.80
2006,08,20,04,30,12.80
2006,08,20,04,31,12.80
2006,08,20,04,32,12.80
2006,08,20,04,33,12.80
2006,08,20,04,34,12.80
2006,08,20,04,35,12.80
2006,08,20,04,36,12.80
2006,08,20,04,37,12.80
2006,08,20,04,38,12.80
2006,08,20,04,39,12.80
2006,08,20,04,40,12.80
2006,08,20,04,41,12.80
2006,08,20,04,42,12.80
2006,08,20,04,43,12.80
2006,08,20,04,44,12.80
2006,08,20,04,45,12.80
2006,08,20,04,46,12.80
2006,08,20,04,47,12.80
2006,08,20,04,48,12.80
2006,08,20,04,49,12.70
2006,08,20,04,50,12.70
2006,08,20,04,51,12.70
2006,08,20,04,52,12.70
2006,08,20,04,53,12.70
2006,08,20,04,54,12.70
2006,08,20,04,55,12.60
2006,08,20,04,56,12.60
2006,08,20,04,57,12.60
2006,08,20,04,58,12.60
2006,08,20,04,59,12.60
2006,08,20,05,00,12.60
2006,08,20,05,01,12.50
2006,08,20,05,02,12.50
2006,08,20,05,03,12.50
2006,08,20,05,04,12.50
2006,08,20,05,05,12.50
2006,08,20,05,06,12.50
2006,08,20,05,07,12.50
2006,08,20,05,08,12.50
2006,08,20,05,09,12.50
2006,08,20,05,10,12.50
2006,08,20,05,11,12.40
2006,08,20,05,12,12.40
2006,08,20,05,13,12.40
2006,08,20,05,14,12.40
2006,08,20,05,15,12.40
2006,08,20,05,16,12.40
2006,08,20,05,17,12.40
2006,08,20,05,18,12.30
2006,08,20,05,19,12.30
2006,08,20,05,20,12.30
2006,08,20,05,21,12.30
2006,08,20,05,22,12.30
2006,08,20,05,23,12.30
2006,08,20,05,24,12.30
2006,08,20,05,25,12.30
2006,08,20,05,26,12.30
2006,08,20,05,27,12.30
2006,08,20,05,28,12.30
2006,08,20,05,29,12.30
2006,08,20,05,30,12.30
2006,08,20,05,31,12.30
2006,08,20,05,32,12.30
2006,08,20,05,33,12.30
2006,08,20,05,34,12.30
2006,08,20,05,35,12.30
2006,08,20,05,36,12.20
2006,08,20,05,37,12.20
2006,08,20,05,38,12.20
2006,08,20,05,39,12.20
2006,08,20,05,40,12.20
2006,08,20,05,41,12.20
2006,08,20,05,42,12.20
2006,08,20,05,43,12.20
2006,08,20,05,44,12.20
2006,08,20,05,45,12.10
2006,08,20,05,46,12.10
2006,08,20,05,47,12.10
2006,08,20,05,48,12.10
2006,08,20,05,49,12.10
2006,08,20,05,50,12.10
2006,08,20,05,51,12.10
2006,08,20,05,52,12.10
2006,08,20,05,53,12.10
2006,08,20,05,54,12.10
2006,08,20,05,55,12.10
2006,08,20,05,56,12.10
2006,08,20,05,57,12.10
2006,08,20,05,58,12.10
2006,08,20,05,59,12.10
2006,08,20,06,00,12.10
2006,08,20,06,01,12.00
2006,08,20,06,02,12.00
2006,08,20,06,03,12.00
2006,08,20,06,04,12.00
2006,08,20,06,05,12.00
2006,08,20,06,06,12.00
2006,08,20,06,07,12.00
2006,08,20,06,08,12.00
2006,08,20,06,09,12.00
2006,08,20,06,10,12.00
2006,08,20,06,11,12.00
2006,08,20,06,12,12.00
2006,08,20,06,13,12.00
2006,08,20,06,14,12.00
2006,08,20,06,15,12.00
2006,08,20,06,16,12.00
2006,08,20,06,17,12.00
2006,08,20,06,18,12.00
2006,08,20,06,19,12.00
2006,08,20,06,20,12.00
2006,08,20,06,21,12.00
2006,08,20,06,22,12.00
2006,08,20,06,23,12.00
2006,08,20,06,24,11.90
2006,08,20,06,25,11.90
2006,08,20,06,26,11.90
2006,08,20,06,27,11.90
2006,08,20,06,28,11.90
2006,08,20,06,29,11.90
2006,08,20,06,30,11.90
2006,08,20,06,31,11.90
2006,08,20,06,32,11.90
2006,08,20,06,33,12.00
2006,08,20,06,34,12.00
2006,08,20,06,35,12.00
2006,08,20,06,36,12.00
2006,08,20,06,37,12.10
2006,08,20,06,38,12.10
2006,08,20,06,39,12.20
2006,08,20,06,40,12.20
2006,08,20,06,41,12.30
2006,08,20,06,42,12.30
2006,08,20,06,43,12.30
2006,08,20,06,44,12.30
2006,08,20,06,45,12.30
2006,08,20,06,46,12.30
2006,08,20,06,47,12.30
2006,08,20,06,48,12.30
2006,08,20,06,49,12.30
2006,08,20,06,50,12.40
2006,08,20,06,51,12.40
2006,08,20,06,52,12.50
2006,08,20,06,53,12.50
2006,08,20,06,54,12.60
2006,08,20,06,55,12.60
2006,08,20,06,56,12.60
2006,08,20,06,57,12.80
2006,08,20,06,58,12.80
2006,08,20,06,59,12.90
2006,08,20,07,00,13.00
2006,08,20,07,01,13.00
2006,08,20,07,02,13.10
2006,08,20,07,03,13.10
2006,08,20,07,04,13.20
2006,08,20,07,05,13.20
2006,08,20,07,06,13.30
2006,08,20,07,07,13.30
2006,08,20,07,08,13.30
2006,08,20,07,09,13.40
2006,08,20,07,10,13.40
2006,08,20,07,11,13.50
2006,08,20,07,12,13.60
2006,08,20,07,13,13.60
2006,08,20,07,14,13.70
2006,08,20,07,15,13.70
2006,08,20,07,16,13.80
2006,08,20,07,17,13.90
2006,08,20,07,18,14.00
2006,08,20,07,19,14.10
2006,08,20,07,20,14.10
2006,08,20,07,21,14.20
2006,08,20,07,22,14.20
2006,08,20,07,23,14.40
2006,08,20,07,24,14.50
2006,08,20,07,25,14.60
2006,08,20,07,26,14.60
2006,08,20,07,27,14.70
2006,08,20,07,28,14.80
2006,08,20,07,29,14.90
2006,08,20,07,30,15.00
2006,08,20,07,31,15.10
2006,08,20,07,32,15.20
2006,08,20,07,33,15.30
2006,08,20,07,34,15.30
2006,08,20,07,35,15.40
2006,08,20,07,36,15.50
2006,08,20,07,37,15.60
2006,08,20,07,38,15.70
2006,08,20,07,39,15.70
2006,08,20,07,40,15.90
2006,08,20,07,41,16.00
2006,08,20,07,42,16.10
2006,08,20,07,43,16.20
2006,08,20,07,44,16.30
2006,08,20,07,45,16.40
2006,08,20,07,46,16.50
2006,08,20,07,47,16.60
2006,08,20,07,48,16.70
2006,08,20,07,49,16.70
2006,08,20,07,50,16.70
2006,08,20,07,51,16.90
2006,08,20,07,52,17.10
2006,08,20,07,53,17.10
2006,08,20,07,54,17.20
2006,08,20,07,55,17.30
2006,08,20,07,56,17.30
2006,08,20,07,57,17.30
2006,08,20,07,58,17.40
2006,08,20,07,59,17.50
2006,08,20,08,00,17.50
2006,08,20,08,01,17.60
2006,08,20,08,02,17.70
2006,08,20,08,03,17.70
2006,08,20,08,04,17.80
2006,08,20,08,05,17.90
2006,08,20,08,06,17.90
2006,08,20,08,07,17.90
2006,08,20,08,08,18.00
2006,08,20,08,09,18.10
2006,08,20,08,10,18.20
2006,08,20,08,11,18.20
2006,08,20,08,12,18.20
2006,08,20,08,13,18.30
2006,08,20,08,14,18.40
2006,08,20,08,15,18.40
2006,08,20,08,16,18.30
2006,08,20,08,17,18.40
2006,08,20,08,18,18.40
2006,08,20,08,19,18.40
2006,08,20,08,20,18.40
2006,08,20,08,21,18.50
2006,08,20,08,22,18.50
2006,08,20,08,23,18.50
2006,08,20,08,24,18.60
2006,08,20,08,25,18.60
2006,08,20,08,26,18.60
2006,08,20,08,27,18.60
2006,08,20,08,28,18.70
2006,08,20,08,29,18.70
2006,08,20,08,30,18.70
2006,08,20,08,31,18.70
2006,08,20,08,32,18.70
2006,08,20,08,33,18.70
2006,08,20,08,34,18.70
2006,08,20,08,35,18.70
2006,08,20,08,36,18.70
2006,08,20,08,37,18.70
2006,08,20,08,38,18.70
2006,08,20,08,39,18.60
2006,08,20,08,40,18.60
2006,08,20,08,41,18.60
2006,08,20,08,42,18.60
2006,08,20,08,43,18.50
2006,08,20,08,44,18.40
2006,08,20,08,45,18.40
2006,08,20,08,46,18.30
2006,08,20,08,47,18.40
2006,08,20,08,48,18.40
2006,08,20,08,49,18.40
2006,08,20,08,50,18.50
2006,08,20,08,51,18.60
2006,08,20,08,52,18.60
2006,08,20,08,53,18.70
2006,08,20,08,54,18.80
2006,08,20,08,55,18.90
2006,08,20,08,56,18.90
2006,08,20,08,57,18.90
2006,08,20,08,58,18.90
2006,08,20,08,59,18.90
2006,08,20,09,00,18.80
2006,08,20,09,01,18.80
2006,08,20,09,02,18.80
2006,08,20,09,03,18.80
2006,08,20,09,04,18.90
2006,08,20,09,05,18.90
2006,08,20,09,06,19.00
2006,08,20,09,07,19.10
2006,08,20,09,08,19.10
2006,08,20,09,09,19.30
2006,08,20,09,10,19.40
2006,08,20,09,11,19.40
2006,08,20,09,12,19.50
2006,08,20,09,13,19.50
2006,08,20,09,14,19.50
2006,08,20,09,15,19.50
2006,08,20,09,16,19.50
2006,08,20,09,17,19.60
2006,08,20,09,18,19.70
2006,08,20,09,19,19.80
2006,08,20,09,20,19.80
2006,08,20,09,21,19.90
2006,08,20,09,22,19.90
2006,08,20,09,23,19.90
2006,08,20,09,24,20.00
2006,08,20,09,25,20.10
2006,08,20,09,26,20.10
2006,08,20,09,27,20.10
2006,08,20,09,28,20.20
2006,08,20,09,29,20.20
2006,08,20,09,30,20.20
2006,08,20,09,31,20.20
2006,08,20,09,32,20.30
2006,08,20,09,33,20.40
2006,08,20,09,34,20.40
2006,08,20,09,35,20.50
2006,08,20,09,36,20.50
2006,08,20,09,37,20.60
2006,08,20,09,38,20.60
2006,08,20,09,39,20.60
2006,08,20,09,40,20.60
2006,08,20,09,41,20.60
2006,08,20,09,42,20.40
2006,08,20,09,43,20.30
2006,08,20,09,44,20.30
2006,08,20,09,45,20.20
2006,08,20,09,46,20.20
2006,08,20,09,47,20.20
2006,08,20,09,48,20.20
2006,08,20,09,49,20.30
2006,08,20,09,50,20.30
2006,08,20,09,51,20.20
2006,08,20,09,52,20.20
2006,08,20,09,53,20.20
2006,08,20,09,54,20.20
2006,08,20,09,55,20.20
2006,08,20,09,56,20.20
2006,08,20,09,57,20.20
2006,08,20,09,58,20.20
2006,08,20,09,59,20.30
2006,08,20,10,00,20.30
2006,08,20,10,01,20.30
2006,08,20,10,02,20.30
2006,08,20,10,03,20.20
2006,08,20,10,04,20.20
2006,08,20,10,05,20.20
2006,08,20,10,06,20.20
2006,08,20,10,07,20.20
2006,08,20,10,08,20.20
2006,08,20,10,09,20.20
2006,08,20,10,10,20.20
2006,08,20,10,11,20.10
2006,08,20,10,12,20.10
2006,08,20,10,13,20.00
2006,08,20,10,14,19.90
2006,08,20,10,15,20.00
2006,08,20,10,16,20.10
2006,08,20,10,17,20.10
2006,08,20,10,18,20.20
2006,08,20,10,19,20.20
2006,08,20,10,20,20.30
2006,08,20,10,21,20.40
2006,08,20,10,22,20.50
2006,08,20,10,23,20.60
2006,08,20,10,24,20.70
2006,08,20,10,25,20.70
2006,08,20,10,26,20.60
2006,08,20,10,27,20.60
2006,08,20,10,28,20.60
2006,08,20,10,29,20.60
2006,08,20,10,30,20.60
2006,08,20,10,31,20.70
2006,08,20,10,32,20.80
2006,08,20,10,33,20.90
2006,08,20,10,34,20.90
2006,08,20,10,35,21.00
2006,08,20,10,36,21.10
2006,08,20,10,37,21.10
2006,08,20,10,38,21.10
2006,08,20,10,39,21.10
2006,08,20,10,40,21.10
2006,08,20,10,41,21.10
2006,08,20,10,42,21.00
2006,08,20,10,43,21.00
2006,08,20,10,44,21.00
2006,08,20,10,45,21.00
2006,08,20,10,46,21.00
2006,08,20,10,47,21.10
2006,08,20,10,48,21.10
2006,08,20,10,49,21.10
2006,08,20,10,50,21.20
2006,08,20,10,51,21.30
2006,08,20,10,52,21.30
2006,08,20,10,53,21.30
2006,08,20,10,54,21.40
2006,08,20,10,55,21.40
2006,08,20,10,56,21.40
2006,08,20,10,57,21.40
2006,08,20,10,58,21.40
2006,08,20,10,59,21.40
2006,08,20,11,00,21.40
2006,08,20,11,01,21.40
2006,08,20,11,02,21.30
2006,08,20,11,03,21.40
2006,08,20,11,04,21.50
2006,08,20,11,05,21.60
2006,08,20,11,06,21.60
2006,08,20,11,07,21.60
2006,08,20,11,08,21.60
2006,08,20,11,09,21.60
2006,08,20,11,10,21.60
2006,08,20,11,11,21.60
2006,08,20,11,12,21.70
2006,08,20,11,13,21.70
2006,08,20,11,14,21.70
2006,08,20,11,15,21.70
2006,08,20,11,16,21.80
2006,08,20,11,17,21.80
2006,08,20,11,18,21.90
2006,08,20,11,19,21.90
2006,08,20,11,20,22.00
2006,08,20,11,21,22.10
2006,08,20,11,22,22.10
2006,08,20,11,23,22.20
2006,08,20,11,24,22.20
2006,08,20,11,25,22.30
2006,08,20,11,26,22.30
2006,08,20,11,27,22.30
2006,08,20,11,28,22.30
2006,08,20,11,29,22.30
2006,08,20,11,30,22.30
2006,08,20,11,31,22.30
2006,08,20,11,32,22.30
2006,08,20,11,33,22.40
2006,08,20,11,34,22.40
2006,08,20,11,35,22.50
2006,08,20,11,36,22.60
2006,08,20,11,37,22.70
2006,08,20,11,38,22.70
2006,08,20,11,39,22.80
2006,08,20,11,40,22.80
2006,08,20,11,41,22.80
2006,08,20,11,42,22.80
2006,08,20,11,43,22.80
2006,08,20,11,44,22.80
2006,08,20,11,45,22.80
2006,08,20,11,46,22.80
2006,08,20,11,47,22.80
2006,08,20,11,48,22.80
2006,08,20,11,49,22.80
2006,08,20,11,50,22.70
2006,08,20,11,51,22.70
2006,08,20,11,52,22.80
2006,08,20,11,53,22.80
2006,08,20,11,54,22.90
2006,08,20,11,55,22.90
2006,08,20,11,56,22.90
2006,08,20,11,57,22.90
2006,08,20,11,58,22.90
2006,08,20,11,59,22.90
2006,08,20,12,00,22.90
2006,08,20,12,01,22.90
2006,08,20,12,02,22.90
2006,08,20,12,03,22.90
2006,08,20,12,04,22.90
2006,08,20,12,05,22.90
2006,08,20,12,06,22.70
2006,08,20,12,07,22.60
2006,08,20,12,08,22.50
2006,08,20,12,09,22.50
2006,08,20,12,10,22.40
2006,08,20,12,11,22.40
2006,08,20,12,12,22.50
2006,08,20,12,13,22.60
2006,08,20,12,14,22.70
2006,08,20,12,15,22.60
2006,08,20,12,16,22.60
2006,08,20,12,17,22.60
2006,08,20,12,18,22.60
2006,08,20,12,19,22.70
2006,08,20,12,20,22.70
2006,08,20,12,21,22.80
2006,08,20,12,22,22.90
2006,08,20,12,23,23.00
2006,08,20,12,24,23.00
2006,08,20,12,25,23.00
2006,08,20,12,26,22.90
2006,08,20,12,27,22.90
2006,08,20,12,28,22.90
2006,08,20,12,29,23.00
2006,08,20,12,30,23.10
2006,08,20,12,31,23.10
2006,08,20,12,32,23.10
2006,08,20,12,33,23.30
2006,08,20,12,34,23.30
2006,08,20,12,35,23.30
2006,08,20,12,36,23.10
2006,08,20,12,37,23.10
2006,08,20,12,38,23.00
2006,08,20,12,39,22.90
2006,08,20,12,40,23.00
2006,08,20,12,41,22.90
2006,08,20,12,42,22.80
2006,08,20,12,43,22.70
2006,08,20,12,44,22.60
2006,08,20,12,45,22.60
2006,08,20,12,46,22.40
2006,08,20,12,47,22.40
2006,08,20,12,48,22.40
2006,08,20,12,49,22.40
2006,08,20,12,50,22.30
2006,08,20,12,51,22.20
2006,08,20,12,52,22.10
2006,08,20,12,53,22.00
2006,08,20,12,54,22.00
2006,08,20,12,55,22.20
2006,08,20,12,56,22.20
2006,08,20,12,57,22.50
2006,08,20,12,58,22.60
2006,08,20,12,59,22.50
2006,08,20,13,00,22.40
2006,08,20,13,01,22.20
2006,08,20,13,02,22.10
2006,08,20,13,03,21.90
2006,08,20,13,04,21.70
2006,08,20,13,05,21.60
2006,08,20,13,06,21.60
2006,08,20,13,07,21.60
2006,08,20,13,08,21.60
2006,08,20,13,09,21.60
2006,08,20,13,10,21.70
2006,08,20,13,11,21.60
2006,08,20,13,12,21.50
2006,08,20,13,13,21.30
2006,08,20,13,14,21.20
2006,08,20,13,15,21.10
2006,08,20,13,16,21.20
2006,08,20,13,17,21.20
2006,08,20,13,18,21.10
2006,08,20,13,19,21.00
2006,08,20,13,20,21.00
2006,08,20,13,21,21.00
2006,08,20,13,22,21.10
2006,08,20,13,23,21.20
2006,08,20,13,24,21.40
2006,08,20,13,25,21.60
2006,08,20,13,26,21.90
2006,08,20,13,27,22.00
2006,08,20,13,28,22.00
2006,08,20,13,29,21.80
2006,08,20,13,30,21.80
2006,08,20,13,31,21.90
2006,08,20,13,32,22.10
2006,08,20,13,33,22.20
2006,08,20,13,34,22.20
2006,08,20,13,35,22.20
2006,08,20,13,36,22.20
2006,08,20,13,37,22.10
2006,08,20,13,38,22.00
2006,08,20,13,39,21.90
2006,08,20,13,40,21.90
2006,08,20,13,41,22.00
2006,08,20,13,42,21.90
2006,08,20,13,43,21.90
2006,08,20,13,44,21.80
2006,08,20,13,45,21.60
2006,08,20,13,46,21.60
2006,08,20,13,47,21.60
2006,08,20,13,48,21.60
2006,08,20,13,49,21.70
2006,08,20,13,50,21.80
2006,08,20,13,51,21.70
2006,08,20,13,52,21.70
2006,08,20,13,53,21.70
2006,08,20,13,54,21.60
2006,08,20,13,55,21.80
2006,08,20,13,56,22.00
2006,08,20,13,57,22.10
2006,08,20,13,58,22.10
2006,08,20,13,59,22.00
2006,08,20,14,00,22.10
2006,08,20,14,01,22.30
2006,08,20,14,02,22.30
2006,08,20,14,03,22.20
2006,08,20,14,04,22.00
2006,08,20,14,05,21.90
2006,08,20,14,06,21.80
2006,08,20,14,07,21.70
2006,08,20,14,08,21.70
2006,08,20,14,09,21.80
2006,08,20,14,10,21.80
2006,08,20,14,11,22.00
2006,08,20,14,12,22.20
2006,08,20,14,13,22.20
2006,08,20,14,14,22.10
2006,08,20,14,15,22.00
2006,08,20,14,16,21.90
2006,08,20,14,17,22.00
2006,08,20,14,18,21.90
2006,08,20,14,19,21.90
2006,08,20,14,20,21.90
2006,08,20,14,21,21.80
2006,08,20,14,22,21.70
2006,08,20,14,23,21.90
2006,08,20,14,24,21.90
2006,08,20,14,25,21.80
2006,08,20,14,26,21.70
2006,08,20,14,27,21.70
2006,08,20,14,28,21.80
2006,08,20,14,29,21.90
2006,08,20,14,30,21.90
2006,08,20,14,31,22.00
2006,08,20,14,32,22.00
2006,08,20,14,33,22.00
2006,08,20,14,34,21.90
2006,08,20,14,35,22.00
2006,08,20,14,36,22.20
2006,08,20,14,37,22.30
2006,08,20,14,38,22.20
2006,08,20,14,39,22.20
2006,08,20,14,40,22.10
2006,08,20,14,41,22.20
2006,08,20,14,42,22.20
2006,08,20,14,43,22.30
2006,08,20,14,44,22.30
2006,08,20,14,45,22.40
2006,08,20,14,46,22.40
2006,08,20,14,47,22.50
2006,08,20,14,48,22.70
2006,08,20,14,49,22.70
2006,08,20,14,50,22.70
2006,08,20,14,51,22.70
2006,08,20,14,52,22.80
2006,08,20,14,53,22.80
2006,08,20,14,54,22.80
2006,08,20,14,55,22.60
2006,08,20,14,56,22.60
2006,08,20,14,57,22.50
2006,08,20,14,58,22.40
2006,08,20,14,59,22.50
2006,08,20,15,00,22.60
2006,08,20,15,01,22.70
2006,08,20,15,02,22.90
2006,08,20,15,03,23.00
2006,08,20,15,04,23.10
2006,08,20,15,05,23.00
2006,08,20,15,06,22.90
2006,08,20,15,07,22.90
2006,08,20,15,08,22.90
2006,08,20,15,09,22.90
2006,08,20,15,10,22.90
2006,08,20,15,11,23.00
2006,08,20,15,12,22.90
2006,08,20,15,13,22.80
2006,08,20,15,14,22.70
2006,08,20,15,15,22.70
2006,08,20,15,16,22.70
2006,08,20,15,17,22.70
2006,08,20,15,18,22.60
2006,08,20,15,19,22.60
2006,08,20,15,20,22.60
2006,08,20,15,21,22.50
2006,08,20,15,22,22.50
2006,08,20,15,23,22.40
2006,08,20,15,24,22.40
2006,08,20,15,25,22.40
2006,08,20,15,26,22.40
2006,08,20,15,27,22.60
2006,08,20,15,28,22.70
2006,08,20,15,29,22.80
2006,08,20,15,30,22.70
2006,08,20,15,31,22.70
2006,08,20,15,32,22.80
2006,08,20,15,33,22.80
2006,08,20,15,34,22.70
2006,08,20,15,35,22.70
2006,08,20,15,36,22.90
2006,08,20,15,37,23.10
2006,08,20,15,38,23.20
2006,08,20,15,39,23.20
2006,08,20,15,40,23.10
2006,08,20,15,41,23.10
2006,08,20,15,42,23.10
2006,08,20,15,43,23.20
2006,08,20,15,44,23.30
2006,08,20,15,45,23.30
2006,08,20,15,46,23.20
2006,08,20,15,47,23.20
2006,08,20,15,48,23.30
2006,08,20,15,49,23.30
2006,08,20,15,50,23.30
2006,08,20,15,51,23.10
2006,08,20,15,52,23.10
2006,08,20,15,53,22.90
2006,08,20,15,54,22.90
2006,08,20,15,55,22.90
2006,08,20,15,56,23.00
2006,08,20,15,57,23.20
2006,08,20,15,58,23.20
2006,08,20,15,59,23.20
2006,08,20,16,00,23.20
2006,08,20,16,01,23.30
2006,08,20,16,02,23.30
2006,08,20,16,03,23.30
2006,08,20,16,04,23.20
2006,08,20,16,05,23.20
2006,08,20,16,06,23.20
2006,08,20,16,07,23.20
2006,08,20,16,08,23.10
2006,08,20,16,09,23.10
2006,08,20,16,10,23.10
2006,08,20,16,11,23.10
2006,08,20,16,12,23.30
2006,08,20,16,13,23.40
2006,08,20,16,14,23.40
2006,08,20,16,15,23.30
2006,08,20,16,16,23.30
2006,08,20,16,17,23.30
2006,08,20,16,18,23.30
2006,08,20,16,19,23.40
2006,08,20,16,20,23.40
2006,08,20,16,21,23.50
2006,08,20,16,22,23.60
2006,08,20,16,23,23.60
2006,08,20,16,24,23.70
2006,08,20,16,25,23.70
2006,08,20,16,26,23.70
2006,08,20,16,27,23.70
2006,08,20,16,28,23.70
2006,08,20,16,29,23.70
2006,08,20,16,30,23.70
2006,08,20,16,31,23.70
2006,08,20,16,32,23.60
2006,08,20,16,33,23.50
2006,08,20,16,34,23.40
2006,08,20,16,35,23.40
2006,08,20,16,36,23.40
2006,08,20,16,37,23.30
2006,08,20,16,38,23.30
2006,08,20,16,39,23.20
2006,08,20,16,40,23.20
2006,08,20,16,41,23.20
2006,08,20,16,42,23.20
2006,08,20,16,43,23.20
2006,08,20,16,44,23.20
2006,08,20,16,45,23.20
2006,08,20,16,46,23.20
2006,08,20,16,47,23.10
2006,08,20,16,48,23.10
2006,08,20,16,49,23.10
2006,08,20,16,50,23.10
2006,08,20,16,51,23.10
2006,08,20,16,52,23.00
2006,08,20,16,53,22.90
2006,08,20,16,54,22.90
2006,08,20,16,55,22.80
2006,08,20,16,56,22.70
2006,08,20,16,57,22.60
2006,08,20,16,58,22.60
2006,08,20,16,59,22.70
2006,08,20,17,00,22.80
2006,08,20,17,01,22.90
2006,08,20,17,02,22.80
2006,08,20,17,03,22.70
2006,08,20,17,04,22.60
2006,08,20,17,05,22.60
2006,08,20,17,06,22.60
2006,08,20,17,07,22.50
2006,08,20,17,08,22.50
2006,08,20,17,09,22.40
2006,08,20,17,10,22.40
2006,08,20,17,11,22.40
2006,08,20,17,12,22.30
2006,08,20,17,13,22.20
2006,08,20,17,14,22.10
2006,08,20,17,15,22.10
2006,08,20,17,16,22.00
2006,08,20,17,17,22.00
2006,08,20,17,18,22.00
2006,08,20,17,19,22.00